TimeEDT,TemperatureF,Dew PointF,Humidity,Sea Level PressureIn,VisibilityMPH,Wind Direction,Wind SpeedMPH,Gust SpeedMPH,PrecipitationIn,Events,Conditions,WindDirDegrees,DateUTC
12:15 AM,34.2,30.9,88,30.02,10.0,NW,3.5,-,N/A,,Overcast,320,2013-03-13 04:15:00
12:35 AM,33.8,31.1,90,30.02,10.0,Calm,Calm,-,N/A,,Overcast,0,2013-03-13 04:35:00
12:55 AM,33.8,30.9,89,30.01,10.0,Calm,Calm,-,N/A,,Mostly Cloudy,0,2013-03-13 04:55:00
1:15 AM,31.6,29.1,90,30.00,10.0,Calm,Calm,-,N/A,,Scattered Clouds,0,2013-03-13 05:15:00
1:55 AM,30.2,28.4,93,30.00,10.0,Calm,Calm,-,N/A,,Clear,0,2013-03-13 05:55:00
2:15 AM,29.1,27.5,94,30.01,7.0,WSW,3.5,-,N/A,,Mostly Cloudy,250,2013-03-13 06:15:00
2:35 AM,29.3,27.9,94,30.01,7.0,West,3.5,-,N/A,,Mostly Cloudy,260,2013-03-13 06:35:00
2:55 AM,29.3,28.0,95,30.01,5.0,Calm,Calm,-,N/A,,Mostly Cloudy,0,2013-03-13 06:55:00
3:15 AM,30.9,29.3,94,30.00,10.0,Calm,Calm,-,N/A,,Scattered Clouds,0,2013-03-13 07:15:00
3:35 AM,30.6,28.2,91,30.00,10.0,WSW,3.5,-,N/A,,Scattered Clouds,250,2013-03-13 07:35:00
3:55 AM,30.2,27.9,91,30.00,10.0,WSW,5.8,-,N/A,,Scattered Clouds,250,2013-03-13 07:55:00
4:15 AM,31.5,28.8,90,29.99,10.0,WSW,6.9,-,N/A,,Scattered Clouds,240,2013-03-13 08:15:00
4:55 AM,31.6,27.7,85,29.99,10.0,WSW,9.2,17.3,N/A,,Clear,240,2013-03-13 08:55:00
5:15 AM,30.9,27.0,85,29.99,10.0,WSW,5.8,-,N/A,,Clear,240,2013-03-13 09:15:00
5:35 AM,30.7,27.0,86,29.99,10.0,SW,4.6,-,N/A,,Scattered Clouds,220,2013-03-13 09:35:00
5:55 AM,30.9,27.5,87,29.99,10.0,SSW,3.5,-,N/A,,Mostly Cloudy,200,2013-03-13 09:55:00
6:15 AM,30.9,27.5,87,29.99,10.0,SW,3.5,-,N/A,,Overcast,230,2013-03-13 10:15:00
6:35 AM,30.6,27.5,88,29.99,10.0,Calm,Calm,-,N/A,,Overcast,0,2013-03-13 10:35:00
6:55 AM,30.9,27.9,88,29.99,10.0,SSW,3.5,-,N/A,,Overcast,200,2013-03-13 10:55:00
7:15 AM,31.1,27.9,88,29.99,10.0,SSW,3.5,-,N/A,,Overcast,210,2013-03-13 11:15:00
7:35 AM,31.5,27.9,87,29.99,7.0,SW,4.6,-,N/A,Snow,Light Snow,230,2013-03-13 11:35:00
7:55 AM,31.1,28.6,90,29.99,5.0,SW,6.9,-,N/A,Snow,Light Snow,230,2013-03-13 11:55:00
8:15 AM,31.6,28.4,88,30.00,7.0,WSW,8.1,-,N/A,Snow,Light Snow,240,2013-03-13 12:15:00
8:35 AM,31.5,28.4,88,30.01,1.5,WSW,13.8,-,N/A,Snow,Light Snow,250,2013-03-13 12:35:00
8:55 AM,31.3,28.2,88,30.01,4.0,West,9.2,-,N/A,Snow,Light Snow,260,2013-03-13 12:55:00
9:15 AM,32.0,27.3,83,30.02,10.0,West,11.5,-,N/A,,Overcast,270,2013-03-13 13:15:00
9:35 AM,32.0,26.6,80,30.02,10.0,West,8.1,-,N/A,,Overcast,270,2013-03-13 13:35:00
9:55 AM,31.8,27.5,84,30.03,2.0,West,6.9,-,N/A,Snow,Light Snow,260,2013-03-13 13:55:00
10:15 AM,32.0,26.2,79,30.04,7.0,West,12.7,18.4,N/A,Snow,Light Snow,280,2013-03-13 14:15:00
10:35 AM,29.5,25.7,86,30.06,0.8,WNW,15.0,20.7,N/A,Snow,Light Snow,290,2013-03-13 14:35:00
10:55 AM,30.4,26.1,84,30.07,5.0,West,10.4,19.6,N/A,Snow,Light Snow,280,2013-03-13 14:55:00
11:15 AM,31.1,22.8,71,30.07,10.0,WNW,16.1,23.0,N/A,,Overcast,290,2013-03-13 15:15:00
11:35 AM,32.0,22.6,68,30.08,10.0,WNW,16.1,23.0,N/A,,Mostly Cloudy,290,2013-03-13 15:35:00
11:55 AM,31.8,18.9,59,30.09,10.0,West,17.3,23.0,N/A,,Mostly Cloudy,280,2013-03-13 15:55:00
12:15 PM,32.0,19.2,59,30.09,10.0,WNW,17.3,23.0,N/A,,Overcast,290,2013-03-13 16:15:00
12:35 PM,32.5,19.0,58,30.10,10.0,West,20.7,27.6,N/A,,Overcast,280,2013-03-13 16:35:00
12:55 PM,31.6,21.0,65,30.11,10.0,WNW,12.7,23.0,N/A,,Overcast,300,2013-03-13 16:55:00
1:15 PM,32.2,22.8,68,30.11,4.0,WNW,15.0,20.7,N/A,Snow,Light Snow,290,2013-03-13 17:15:00
1:35 PM,31.3,21.6,67,30.13,5.0,WNW,18.4,24.2,N/A,Snow,Light Snow,290,2013-03-13 17:35:00
1:55 PM,30.7,23.5,75,30.12,10.0,West,11.5,16.1,N/A,,Overcast,270,2013-03-13 17:55:00
2:15 PM,31.5,21.4,66,30.12,5.0,West,13.8,-,N/A,Snow,Light Snow,270,2013-03-13 18:15:00
2:35 PM,33.4,21.0,60,30.11,10.0,WSW,19.6,25.3,N/A,,Overcast,250,2013-03-13 18:35:00
2:55 PM,32.0,23.0,69,30.13,5.0,West,16.1,32.2,N/A,Snow,Light Snow,280,2013-03-13 18:55:00
3:15 PM,32.2,21.2,64,30.13,10.0,West,19.6,31.1,N/A,,Overcast,280,2013-03-13 19:15:00
3:35 PM,32.5,18.7,57,30.13,10.0,West,18.4,24.2,N/A,,Overcast,280,2013-03-13 19:35:00
3:55 PM,32.4,19.2,58,30.14,10.0,West,15.0,25.3,N/A,,Overcast,270,2013-03-13 19:55:00
4:15 PM,32.2,18.9,58,30.14,10.0,West,16.1,26.5,N/A,,Overcast,270,2013-03-13 20:15:00
4:35 PM,29.5,23.9,80,30.15,0.8,West,12.7,27.6,N/A,Snow,Light Snow,280,2013-03-13 20:35:00
4:55 PM,31.5,24.3,75,30.16,10.0,West,15.0,-,N/A,,Overcast,270,2013-03-13 20:55:00
5:15 PM,32.0,21.4,65,30.16,10.0,West,16.1,25.3,N/A,,Overcast,270,2013-03-13 21:15:00
5:35 PM,31.6,21.6,66,30.17,10.0,West,16.1,25.3,N/A,,Overcast,270,2013-03-13 21:35:00
5:55 PM,30.7,22.3,71,30.17,10.0,WNW,17.3,21.9,N/A,,Overcast,290,2013-03-13 21:55:00
6:15 PM,31.1,22.5,70,30.18,7.0,WNW,15.0,23.0,N/A,Snow,Light Snow,290,2013-03-13 22:15:00
6:35 PM,30.2,23.5,76,30.19,7.0,WNW,9.2,16.1,N/A,Snow,Light Snow,300,2013-03-13 22:35:00
6:55 PM,30.6,22.1,71,30.19,10.0,WNW,9.2,17.3,N/A,Snow,Light Snow,300,2013-03-13 22:55:00
7:15 PM,29.8,23.5,77,30.20,10.0,West,6.9,-,N/A,,Overcast,270,2013-03-13 23:15:00
7:35 PM,29.3,23.9,80,30.21,10.0,West,10.4,17.3,N/A,Snow,Light Snow,270,2013-03-13 23:35:00
7:55 PM,29.3,23.7,80,30.22,10.0,WNW,11.5,17.3,N/A,Snow,Light Snow,290,2013-03-13 23:55:00
8:15 PM,29.3,23.0,77,30.22,10.0,West,6.9,-,N/A,,Overcast,270,2013-03-14 00:15:00
8:35 PM,30.0,18.3,62,30.22,10.0,WNW,8.1,-,N/A,,Overcast,300,2013-03-14 00:35:00
8:55 PM,29.8,16.7,58,30.22,10.0,WNW,13.8,19.6,N/A,,Overcast,300,2013-03-14 00:55:00
9:15 PM,29.7,16.9,59,30.23,10.0,WNW,11.5,16.1,N/A,,Overcast,290,2013-03-14 01:15:00
9:35 PM,29.7,17.2,60,30.23,10.0,WNW,12.7,21.9,N/A,,Overcast,290,2013-03-14 01:35:00
9:55 PM,29.5,17.6,61,30.23,10.0,WNW,10.4,-,N/A,,Overcast,290,2013-03-14 01:55:00
10:15 PM,29.7,17.6,61,30.24,10.0,West,6.9,-,N/A,,Overcast,280,2013-03-14 02:15:00
10:35 PM,29.3,18.5,64,30.24,10.0,WNW,9.2,-,N/A,,Overcast,290,2013-03-14 02:35:00
10:55 PM,29.3,18.0,63,30.24,10.0,West,6.9,19.6,N/A,,Overcast,280,2013-03-14 02:55:00
11:15 PM,29.1,17.4,62,30.25,10.0,West,12.7,-,N/A,,Overcast,280,2013-03-14 03:15:00
11:35 PM,28.9,17.2,62,30.25,10.0,WNW,9.2,16.1,N/A,,Overcast,290,2013-03-14 03:35:00
11:55 PM,28.9,18.0,64,30.25,10.0,WNW,10.4,-,N/A,,Overcast,290,2013-03-14 03:55:00